Location: Aalen
(48.8330°N, 10.1000°E)
Time: 08:13:39
(UTC+02:00)

Courier 1B - All Passes

Search period start: 31 July 2021 00:00
Search period end: 10 August 2021 00:00
Orbit: 962 x 1209 km, 28.3° (Epoch: 30 July)

Date Brightness Start Highest point End Pass type
(mag) Time Alt. Az. Time Alt. Az. Time Alt. Az.
31 Jul - 00:28:06 10° SSW 00:30:17 11° SSW 00:32:26 10° S visible
31 Jul - 21:40:18 10° SSW 21:44:05 14° S 21:47:48 10° SE visible
31 Jul - 23:33:35 10° SW 23:36:49 13° S 23:39:59 10° SSE visible
01 Aug - 20:47:03 10° SSW 20:50:32 14° S 20:54:00 10° SE daylight
01 Aug - 22:39:29 10° SW 22:43:18 14° S 22:47:03 10° SSE visible
02 Aug - 19:54:10 10° S 19:57:00 12° SSE 19:59:49 10° SE daylight
02 Aug - 21:45:40 10° SW 21:49:46 15° S 21:53:48 10° SSE visible
02 Aug - 23:40:50 10° SSW 23:42:27 11° SSW 23:44:02 10° S visible
03 Aug - 19:02:12 10° S 19:03:29 10° SSE 19:04:45 10° SSE daylight
03 Aug - 20:52:04 10° SSW 20:56:12 15° S 21:00:18 10° SE daylight
03 Aug - 22:45:53 10° SW 22:48:57 13° SSW 22:51:59 10° S visible
04 Aug - 19:58:41 10° SSW 20:02:38 15° S 20:06:35 10° SE daylight
04 Aug - 21:51:38 10° SW 21:55:26 14° S 21:59:10 10° SSE visible
05 Aug - 19:05:35 10° SSW 19:09:05 14° SSE 19:12:35 10° SE daylight
05 Aug - 20:57:44 10° SW 21:01:53 15° S 21:05:59 10° SSE daylight
06 Aug - 18:12:58 10° S 18:15:33 12° SSE 18:18:10 10° SE daylight
06 Aug - 20:04:02 10° SSW 20:08:18 16° S 20:12:33 10° SSE daylight
06 Aug - 21:58:29 10° SW 22:01:03 12° SSW 22:03:36 10° S visible
07 Aug - 19:10:35 10° SSW 19:14:44 15° S 19:18:54 10° SE daylight
07 Aug - 21:04:01 10° SW 21:07:31 14° SSW 21:11:01 10° SSE daylight
08 Aug - 18:17:23 10° SSW 18:21:11 14° S 18:25:00 10° SE daylight
08 Aug - 20:10:01 10° SW 20:13:58 15° S 20:17:56 10° SSE daylight
09 Aug - 17:24:33 10° SSW 17:27:39 13° SSE 17:30:47 10° SE daylight
09 Aug - 19:16:16 10° SW 19:20:24 15° S 19:24:34 10° SSE daylight
09 Aug - 21:11:50 10° SSW 21:13:08 10° SSW 21:14:25 10° S daylight
